[[{"header":{"parameterUnit":"m.s-1","parameterCategory":1,"la1":30.2991,"la2":30.254,"lo1":-89.0895,"lo2":-89.0444,"dy":0.0017,"dx":0.0017,"nx":28,"ny":28,"refTime":"2023-09-05T21:00:00:Z","depth":0,"parameterNumber":2,"parameterNumberName":"U-component_of_WINDS"},"data":[0,0,0,0,0,0,0,0,0,0,0,0,0,0,0,0,0,0,0,0,0,0,0,0,0,0,0,0,0,0,0,0,0,0,0,0,0,0,0,0,0,0,0,0,0,0,0,0,0,0,0,0,0,0,0,0,0,0,-3.867,-3.8669,0,-3.8629,-3.8628,-3.8628,-3.856,-3.8559,-3.8557,-3.8556,-3.8514,-3.8514,-3.8514,0,0,0,0,0,0,0,0,0,0,0,0,0,-3.8691,-3.8691,-3.867,-3.8669,-3.8669,-3.8629,-3.8628,-3.8628,-3.856,-3.8559,-3.8557,-3.8556,-3.8514,-3.8514,-3.8514,0,0,0,0,0,0,0,0,0,0,0,0,0,-3.8669,-3.8691,-3.867,-3.863,-3.8626,-3.8629,-3.8628,-3.8628,-3.856,-3.8559,-3.8557,-3.8555,-3.8514,-3.8514,-3.8514,-3.8553,0,0,-3.8515,-3.8515,0,0,0,0,0,0,0,0,-3.8671,-3.8668,-3.8637,-3.8633,-3.8629,-3.8598,-3.862,-3.8603,-3.8561,-3.8585,-3.8556,-3.8554,-3.8543,-3.8541,-3.8537,-3.8551,-3.8549,-3.8515,-3.8515,-3.8515,-3.8515,0,0,0,0,0,0,0,-3.8672,-3.867,-3.8654,-3.8636,-3.8631,-3.8615,-3.861,-3.8617,-3.8576,-3.8583,-3.8578,-3.8574,-3.8541,-3.8538,-3.8536,-3.8548,-3.8515,-3.8515,-3.8515,-3.8515,-3.8592,-3.8594,0,0,0,0,0,0,-3.8679,-3.8672,-3.8655,-3.8652,-3.8645,-3.8616,-3.861,-3.8609,-3.8575,-3.8568,-3.8576,-3.8571,-3.8538,-3.8536,-3.8534,-3.8577,-3.8515,-3.8515,-3.8515,-3.859,-3.8592,-3.8595,0,0,0,0,0,0,-3.868,-3.8679,-3.8657,-3.8661,-3.8657,-3.8618,-3.8617,-3.861,-3.8606,-3.857,-3.8562,-3.858,-3.8537,-3.8534,-3.8549,-3.8574,-3.8515,-3.8515,-3.8588,-3.8591,-3.8593,-3.8662,0,0,0,0,0,0,-3.8681,-3.8679,-3.8693,-3.8661,-3.8657,-3.8671,-3.8619,-3.861,-3.8606,-3.86,-3.8571,-3.8565,-3.8535,-3.8549,-3.8549,-3.8573,-3.8515,-3.8585,-3.8589,-3.8593,-3.8657,-3.8667,-3.8675,0,0,0,0,0,-3.8682,-3.8713,-3.8694,-3.8692,-3.8673,-3.8673,-3.867,-3.8635,-3.8609,-3.8622,-3.8599,-3.8566,-3.8572,-3.8551,-3.855,-3.8575,-3.8583,-3.8588,-3.8592,-3.8653,-3.8665,-3.8675,0,0,0,0,0,0,-3.8748,-3.8708,-3.8686,-3.8708,-3.8695,-3.8662,-3.8677,-3.8649,-3.8642,-3.8636,-3.8593,-3.8588,-3.8608,-3.8593,-3.857,-3.8611,-3.8573,-3.8577,-3.8619,-3.863,-3.8639,-3.8641,-3.8515,0,0,0,0,0,-3.8765,-3.8769,-3.8734,-3.8757,-3.8752,-3.8716,-3.8715,-3.8689,-3.8673,-3.8667,-3.8645,-3.8631,-3.863,-3.863,-3.8626,-3.8656,-3.8649,-3.8673,-3.8682,-3.869,-3.8693,-3.8709,-3.8719,-3.8609,-3.8609,-3.8609,0,0,-3.8801,-3.878,-3.8784,-3.877,-3.8756,-3.8761,-3.8711,-3.8718,-3.8721,-3.8668,-3.868,-3.8664,-3.8646,-3.8668,-3.8677,-3.8657,-3.8723,-3.8696,-3.8702,-3.8701,-3.8714,-3.8725,-3.8734,-3.8612,-3.8612,-3.8611,0,0,-3.8867,-3.8852,-3.8869,-3.8857,-3.8837,-3.8814,-3.8819,-3.879,-3.8778,-3.879,-3.875,-3.8754,-3.8753,-3.8741,-3.8735,-3.8801,-3.877,-3.8802,-3.8848,-3.8863,-3.8872,-3.8879,-3.8902,-3.8911,-3.8806,-3.8806,-3.8806,0,-3.8913,-3.8918,-3.8882,-3.8891,-3.8887,-3.884,-3.8858,-3.8848,-3.8829,-3.8826,-3.8805,-3.8803,-3.8787,-3.8807,-3.8823,-3.882,-3.8824,-3.8803,-3.8873,-3.888,-3.8887,-3.8908,-3.8917,-3.881,-3.881,-3.8809,-3.8809,0,-3.8976,-3.898,-3.8997,-3.898,-3.8977,-3.8991,-3.8958,-3.896,-3.8936,-3.8915,-3.8928,-3.8909,-3.8901,-3.8904,-3.888,-3.8921,-3.8909,-3.8881,-3.8841,-3.8902,-3.8921,-3.8929,-3.8816,-3.8814,-3.8813,-3.8812,0,0,-3.9079,-3.9044,-3.905,-3.9042,-3.9019,-3.9022,-3.9035,-3.9027,-3.903,-3.9019,-3.9028,-3.903,-3.9004,-3.8998,-3.8973,-3.8987,-3.904,-3.8957,-3.8956,-3.8972,-3.9083,-3.9103,-3.9113,-3.9021,-3.9022,-3.9023,-3.9084,0,-3.914,-3.9158,-3.9127,-3.9153,-3.9157,-3.9114,-3.9125,-3.9113,-3.9095,-3.9096,-3.9076,-3.9077,-3.9044,-3.904,-3.9052,-3.9031,-3.9061,-3.9026,-3.9028,-3.9029,-3.9032,-3.9123,-3.9143,-3.9202,-3.9092,-3.9093,-3.9094,0,-3.9211,-3.9204,-3.9231,-3.9207,-3.9207,-3.9218,-3.9209,-3.9211,-3.9197,-3.9183,-3.9177,-3.9148,-3.916,-3.9123,-3.9139,-3.9116,-3.9115,-3.9106,-3.9107,-3.9104,-3.9063,-3.9121,-3.922,-3.9228,-3.9105,-3.9104,-3.9104,0,-3.9283,-3.9281,-3.9296,-3.9291,-3.9264,-3.9272,-3.9261,-3.9245,-3.9243,-3.9237,-3.9235,-3.923,-3.9227,-3.9225,-3.9196,-3.9172,-3.9215,-3.9176,-3.9203,-3.9204,-3.9212,-3.9211,-3.931,-3.9215,-3.9215,-3.9215,-3.9214,0,-3.9352,-3.937,-3.9328,-3.9337,-3.9356,-3.9322,-3.9342,-3.9327,-3.9313,-3.9319,-3.9283,-3.929,-3.9252,-3.9255,-3.9233,-3.9249,-3.9248,-3.9237,-3.9231,-3.9239,-3.9241,-3.9237,-3.9231,-3.9217,-3.9216,-3.9216,-3.9216,0,-3.9434,-3.9407,-3.9421,-3.9395,-3.9389,-3.9404,-3.9382,-3.939,-3.9371,-3.9379,-3.9379,-3.9349,-3.9351,-3.9323,-3.9319,-3.9304,-3.933,-3.9317,-3.9335,-3.933,-3.9358,-3.9356,-3.9457,-3.9468,-3.9367,-3.9368,-3.9369,0,-3.9479,-3.9491,-3.9467,-3.9469,-3.946,-3.9463,-3.9461,-3.9429,-3.9429,-3.9415,-3.9425,-3.9424,-3.9421,-3.9426,-3.9404,-3.9402,-3.9388,-3.9423,-3.9387,-3.9395,-3.9387,-3.9386,-3.9387,-3.943,-3.9432,-3.9433,-3.9433,0,-3.9561,-3.9547,-3.9546,-3.9542,-3.9541,-3.9535,-3.9527,-3.9531,-3.9496,-3.9498,-3.95,-3.9498,-3.9495,-3.9495,-3.9488,-3.9478,-3.945,-3.9446,-3.9452,-3.9459,-3.9468,-3.9463,-3.9354,-3.9443,-3.9442,-3.9441,-3.9441,-3.944,-3.9624,-3.9634,-3.9619,-3.9619,-3.961,-3.9605,-3.9611,-3.9593,-3.9594,-3.9589,-3.9571,-3.9576,-3.9563,-3.9551,-3.9544,-3.9548,-3.953,-3.9539,-3.9541,-3.9543,-3.9548,-3.947,-3.9546,-3.9546,-3.9546,-3.9546,-3.9545,0,-3.9704,-3.9692,-3.9694,-3.9684,-3.9685,-3.966,-3.9651,-3.9653,-3.9658,-3.9649,-3.9647,-3.965,-3.965,-3.9629,-3.9627,-3.9634,-3.9622,-3.9635,-3.9633,-3.9631,-3.9564,-3.9558,-3.9645,-3.9645,-3.9645,-3.9645,-3.9645,-3.9645,-3.9745,-3.976,-3.9745,-3.9756,-3.9744,-3.9749,-3.9746,-3.9741,-3.9733,-3.9737,-3.9737,-3.9724,-3.971,-3.9707,-3.9707,-3.9701,-3.9701,-3.9718,-3.9708,-3.9645,-3.9635,-3.9626,-3.9621,-3.9719,-3.9719,-3.9774,-3.9775,-3.9775]},{"header":{"parameterUnit":"m.s-1","parameterCategory":1,"la1":30.2991,"la2":30.254,"lo1":-89.0895,"lo2":-89.0444,"dy":0.0017,"dx":0.0017,"nx":28,"ny":28,"refTime":"2023-09-05T21:00:00:Z","depth":0,"parameterNumber":3,"parameterNumberName":"V-component_of_WINDS"},"data":[0,0,0,0,0,0,0,0,0,0,0,0,0,0,0,0,0,0,0,0,0,0,0,0,0,0,0,0,0,0,0,0,0,0,0,0,0,0,0,0,0,0,0,0,0,0,0,0,0,0,0,0,0,0,0,0,0,0,3.0206,3.0206,0,3.0252,3.0252,3.0253,3.0323,3.0324,3.0326,3.0327,3.0369,3.0369,3.0369,0,0,0,0,0,0,0,0,0,0,0,0,0,3.0175,3.0176,3.0205,3.0206,3.0207,3.0251,3.0252,3.0253,3.0323,3.0325,3.0326,3.0328,3.0369,3.0369,3.0369,0,0,0,0,0,0,0,0,0,0,0,0,0,3.0201,3.0176,3.0205,3.0247,3.0251,3.0251,3.0252,3.0253,3.0323,3.0325,3.0326,3.0328,3.0369,3.0369,3.0369,3.033,0,0,3.0369,3.0369,0,0,0,0,0,0,0,0,3.02,3.0202,3.0241,3.0244,3.0249,3.0284,3.0257,3.0279,3.0322,3.0295,3.0327,3.0329,3.0339,3.0341,3.0346,3.0332,3.0334,3.0369,3.0369,3.0369,3.0369,0,0,0,0,0,0,0,3.0198,3.0201,3.0224,3.0241,3.0246,3.0263,3.0269,3.0261,3.0306,3.0298,3.0303,3.0308,3.0342,3.0346,3.0347,3.0335,3.0369,3.0369,3.0369,3.0369,3.0293,3.0291,0,0,0,0,0,0,3.0191,3.0199,3.0222,3.0225,3.0229,3.0262,3.0268,3.0271,3.0306,3.0313,3.0306,3.0311,3.0345,3.0347,3.0349,3.0307,3.0369,3.0369,3.0368,3.0295,3.0293,3.0291,0,0,0,0,0,0,3.019,3.0192,3.022,3.0213,3.0218,3.026,3.0262,3.027,3.0275,3.0312,3.032,3.0302,3.0346,3.0349,3.0335,3.0309,3.0368,3.0368,3.0297,3.0294,3.0292,3.0221,0,0,0,0,0,0,3.0188,3.0191,3.0177,3.0213,3.0218,3.0206,3.0261,3.027,3.0275,3.0282,3.0311,3.0318,3.0348,3.0335,3.0335,3.031,3.0368,3.03,3.0296,3.0293,3.0226,3.0216,3.0208,0,0,0,0,0,3.0187,3.0154,3.0176,3.0179,3.0202,3.0205,3.0208,3.0245,3.0272,3.0259,3.0283,3.0317,3.0312,3.0333,3.0333,3.0308,3.0302,3.0297,3.0293,3.023,3.0218,3.0208,0,0,0,0,0,0,3.0113,3.016,3.0185,3.0163,3.0179,3.0217,3.02,3.0231,3.0239,3.0245,3.0289,3.0295,3.0276,3.0291,3.0313,3.0273,3.0312,3.0308,3.0264,3.0253,3.0244,3.0241,3.0368,0,0,0,0,0,3.0094,3.0094,3.0134,3.0111,3.0118,3.0158,3.016,3.0188,3.0206,3.0213,3.0236,3.0252,3.0254,3.0255,3.0259,3.0229,3.0237,3.0212,3.0203,3.0195,3.0191,3.0177,3.0167,3.0276,3.0276,3.0276,0,0,3.0055,3.0081,3.0077,3.0097,3.0113,3.011,3.0163,3.0157,3.0156,3.0212,3.0201,3.0218,3.0239,3.0217,3.0208,3.0229,3.0163,3.019,3.0183,3.0183,3.0172,3.0161,3.0152,3.0273,3.0274,3.0274,0,0,2.9983,3.0002,2.9986,3.0001,3.0026,3.0053,3.0049,3.0082,3.0097,3.0087,3.0129,3.0127,3.013,3.0143,3.015,3.0085,3.0116,3.0085,3.0037,3.0023,3.0015,3.0007,2.9984,2.9976,3.008,3.008,3.008,0,2.9931,2.993,2.9972,2.9965,2.9973,3.0025,3.0009,3.0021,3.0045,3.0049,3.0072,3.0078,3.0095,3.0078,3.0062,3.0066,3.0062,3.0081,3.0013,3.0006,2.9999,2.9978,2.9969,3.0076,3.0077,3.0077,3.0077,0,2.9865,2.9863,2.9847,2.9871,2.9877,2.9864,2.9905,2.9905,2.9932,2.9956,2.9946,2.9969,2.9979,2.9977,3.0003,2.9964,2.9976,3.0005,3.0045,2.9984,2.9965,2.9957,3.007,3.0072,3.0073,3.0074,0,0,2.9745,2.9795,2.9788,2.9801,2.9833,2.9832,2.9822,2.9835,2.9834,2.9849,2.9842,2.9844,2.9872,2.988,2.9908,2.9896,2.9844,2.9927,2.9928,2.9911,2.9803,2.978,2.977,2.9865,2.9864,2.9862,2.9801,0,2.968,2.9668,2.9706,2.9684,2.9683,2.9734,2.9726,2.9744,2.9767,2.9769,2.9794,2.9795,2.9831,2.9837,2.9827,2.9852,2.9822,2.9857,2.9858,2.9857,2.9851,2.976,2.9736,2.9677,2.9794,2.9792,2.9792,0,2.9601,2.9614,2.9592,2.9627,2.9629,2.962,2.9636,2.9637,2.9659,2.9676,2.9686,2.972,2.9712,2.9751,2.9741,2.9763,2.9766,2.9779,2.9777,2.9778,2.9821,2.9759,2.9659,2.965,2.978,2.9781,2.9782,0,2.9517,2.9529,2.9518,2.9527,2.9567,2.9561,2.9577,2.9601,2.9606,2.9619,2.9623,2.9633,2.9639,2.9646,2.9681,2.9706,2.9667,2.9709,2.9681,2.968,2.967,2.967,2.9569,2.9672,2.9672,2.9672,2.9672,0,2.9439,2.9424,2.9481,2.9474,2.9459,2.9503,2.9486,2.9507,2.9529,2.9526,2.957,2.9566,2.9613,2.9615,2.9642,2.963,2.9632,2.9645,2.9653,2.9642,2.964,2.9644,2.9649,2.967,2.967,2.9671,2.9671,0,2.9342,2.938,2.9372,2.9411,2.9421,2.9408,2.9441,2.9436,2.9463,2.9459,2.946,2.9501,2.9505,2.9541,2.9553,2.9571,2.9549,2.9564,2.9542,2.9547,2.9517,2.952,2.9415,2.9404,2.9513,2.9512,2.9511,0,2.9291,2.928,2.932,2.9322,2.9337,2.934,2.9346,2.939,2.9394,2.942,2.9411,2.942,2.9429,2.9433,2.9462,2.9472,2.9488,2.9451,2.9489,2.9478,2.9487,2.9488,2.9487,2.9442,2.9441,2.9439,2.9438,0,2.9194,2.9214,2.9223,2.9238,2.9244,2.9258,2.9274,2.9273,2.9321,2.9324,2.933,2.9337,2.935,2.9358,2.9373,2.9388,2.9421,2.9426,2.9421,2.9409,2.9397,2.9403,2.952,2.9428,2.9429,2.943,2.9431,2.9431,2.9119,2.9113,2.914,2.9148,2.9165,2.918,2.9177,2.9204,2.921,2.9226,2.9251,2.9253,2.9276,2.93,2.9313,2.9315,2.9334,2.9326,2.9324,2.9321,2.9315,2.9397,2.9318,2.9318,2.9319,2.9319,2.9319,0,2.9026,2.9046,2.9053,2.9076,2.9082,2.9114,2.9134,2.9137,2.9139,2.9158,2.9167,2.9174,2.9182,2.9213,2.9224,2.922,2.9235,2.9221,2.9222,2.9225,2.9297,2.9301,2.9209,2.9209,2.9209,2.9209,2.9209,2.9209,2.8978,2.897,2.8993,2.8993,2.9014,2.9018,2.9027,2.904,2.9056,2.9063,2.907,2.9091,2.9115,2.9129,2.9138,2.9146,2.9148,2.9129,2.9143,2.9209,2.922,2.923,2.9234,2.9129,2.9129,2.9072,2.9071,2.9071]}]]